Regional Weather Roundup
Issued by NWS

Home | Current Version | Previous Version | Text Only | Print | Product List | Glossary Off
Versions: 1 2 3 4 5 6 7 8 9 10 11 12 13 14 15 16 17 18 19 20 21 22 23 24 25 26 27 28 29 30 31 32 33 34 35 36 37 38 39 40 41 42 43 44 45 46 47 48 49 50

166
ASUS43 KBIS 110302
RWRND

NORTH DAKOTA REGIONAL WEATHER ROUNDUP
NATIONAL WEATHER SERVICE BISMARCK ND
900 PM CST WED FEB 10 2016

NOTE: "FAIR" INDICATES FEW OR NO CLOUDS BELOW 12,000 FEET WITH NO
SIGNIFICANT WEATHER AND/OR OBSTRUCTIONS TO VISIBILITY.


NDZ001>003-009>011-017-110400-
NORTHWEST NORTH DAKOTA

CITY           SKY/WX    TMP DP  RH WIND       PRES   REMARKS
WILLISTON      CLOUDY    28  24  85 NE3       30.17S
MINOT          CLOUDY    13   5  70 E3        30.20F
MINOT AFB      CLOUDY    11   8  88 NE3       30.21S
$$

NDZ018>021-031>035-040>046-110400-
SOUTHWEST NORTH DAKOTA

CITY           SKY/WX    TMP DP  RH WIND       PRES   REMARKS
BISMARCK       CLOUDY    19  11  70 E8        30.20S WCI   9
DICKINSON      CLOUDY    25  20  81 E8        30.11R WCI  16
GARRISON         N/A     14   9  80 NE5       30.18S WCI   6
HETTINGER ARPT CLOUDY    30  24  78 N5        30.13S
$$

NDZ004>008-012>016-024-026-027-054-110400-
NORTHEAST NORTH DAKOTA

CITY           SKY/WX    TMP DP  RH WIND       PRES   REMARKS
GRAND FORKS    CLOUDY     9  -1  64 N9        30.31R WCI  -4
GRND FRKS AFB  CLOUDY     7  -2  67 NE5       30.29S WCI  -2
DEVILS LAKE    FLURRIES   6   1  80 SE5       30.25S WCI  -3
$$

NDZ022-023-025-028>030-036>039-047>053-110400-
SOUTHEAST NORTH DAKOTA

CITY           SKY/WX    TMP DP  RH WIND       PRES   REMARKS
FARGO          CLOUDY    10   2  69 N8        30.27S WCI  -2
JAMESTOWN      CLOUDY     8   2  76 E6        30.23S WCI  -2
$$





USA.gov is the U.S. government's official web portal to all federal, state and local government web resources and services.